083  
ASHW40 PHFO 181632  
RWRHI  
 
WEATHER ROUNDUP FOR HAWAII  
NATIONAL WEATHER SERVICE HONOLULU HI  
600 AM HST WED JUL 18 2018  
 
THIS IS AN AUTOMATED REPORT THAT HAS NOT BEEN QUALITY CONTROLLED.  
 
NOTE..."FAIR" INDICATES FEW OR NO CLOUDS BELOW 12,000 FEET WITH NO  
SIGNIFICANT WEATHER AND/OR S TO VISIBILITY
.  
 
* - THESE SITES REPORT LIMITED FIELDS  
# - BUOY DATA PROVIDED BY PACIFIC ISLANDS OCEAN OBSERVING SYSTEM.  
 
HIZ001>004-181700-  
KAUAI-NIIHAU-  
 
CITY SKY/WX TMP DP RH WIND PRES REMARKS
 
LIHUE APT CLOUDY 79 74 84 E15 30.05S  
PORT ALLEN* N/A 77 N/A N/A NE12G18 N/A  
POIPU* N/A 77 N/A N/A NE6G14 N/A  
PRINCEVILLE* N/A 75 N/A N/A SE5 N/A  
KOKOLE POINT* NOT AVBL  
MOLOAA DAIRY* N/A 75 72 88 E5G12 N/A  
WAIMEA HTS* NOT AVBL  
PUU OPAE* NOT AVBL  
PUU LUA* NOT AVBL  
MAKAHA RIDGE* N/A 72 64 78 S1 N/A  

 
 
HIZ005>011-181700-  
OAHU-  
 
CITY SKY/WX TMP DP RH WIND PRES REMARKS
 
HONOLULU MOCLDY 79 70 74 NE13G21 30.01S  
KALAELOA MOCLDY 76 69 79 NE5 30.03R  
KANEOHE MCB CLOUDY 75 74 96 E7G22 30.01R  
WHEELER FIELD FAIR 71 69 90 W8 30.03S  
BELLOWS* N/A N/A N/A N/A NE16 N/A  
KAHUKU* N/A N/A N/A N/A NE9G15 N/A  
WHEELER* NOT AVBL  
WAIANAE HARBOR NOT AVBL  
DILLINGHAM* NOT AVBL  
KAHUKU TRN* N/A 84 82 94 W5G18 N/A HX 101  
KAWAILOA* N/A 72 68 88 E8G21 N/A  
KII* N/A 79 73 83 E17 N/A  
MAKUA RANGE* N/A 81 66 61 E9G15 N/A  
OAHU FOREST NW NOT AVBL  
SCHOFIELD BRK* N/A 70 68 94 W5 N/A  
SCHOFIELD S* NOT AVBL  
WAIANAE VLY* NOT AVBL  
KUAOKALA* NOT AVBL  
HONOULIUULI* NOT AVBL  
MOKUOLOE IS* NOT AVBL  
PALEHUA* NOT AVBL  
WAIAWA PHB* NOT AVBL  

 
 
HIZ012>013-181700-  
MOLOKAI-  
 
CITY SKY/WX TMP DP RH WIND PRES REMARKS
 
MOLOKAI AIRPT PTCLDY 78 70 76 NE10G20 30.02F  
KALAUPAPA NOT AVBL  
MAKAPULAPAI* N/A 75 72 88 E20 N/A  
MOLOKAI 1* NOT AVBL  
PUU ALII* N/A 63 62 95 N3G15 N/A  

 
 
HIZ016-181700-  
KAHOOLAWE-  
 
CITY SKY/WX TMP DP RH WIND PRES REMARKS
 
KAHOOLAWE* NOT AVBL  
HAKIOAWA* N/A 74 69 85 MISG 30.43S  
HONOKANAIA* NOT AVBL  
KANELOA* N/A 75 70 83 E20G33 30.06S  
KEALIALALO* NOT AVBL  
LUA MAKIKA* NOT AVBL  

 
 
HIZ014>015-181700-  
LANAI-  
 
CITY SKY/WX TMP DP RH WIND PRES REMARKS
 
LANAI CITY FAIR 70 68 93 NE7 30.07R  
LANAI 1* NOT AVBL  

 
 
HIZ017>028-181700-  
MAUI-  
 
CITY SKY/WX TMP DP RH WIND PRES REMARKS
 
KAHULUI PTCLDY 76 70 82 E12 30.00S  
KAPALUA-W MAUI PTCLDY 75 68 78 NE9 30.02  
HANA AIRPORT NOT AVBL  
HANA* N/A 75 N/A N/A SE2 N/A  
HALEAKALA SUMM N/A 46 46 100 SE32 N/A  
MAALAEA BAY* N/A 77 N/A N/A N15G23 N/A  
HALEAKALA* NOT AVBL  
KAUPO GAP* NOT AVBL  
KULA 1* N/A 58 50 76 NE3G13 N/A  

 
 
HIZ023>026-181700-  
BIG ISLAND OF HAWAII COAST AND LOWER SLOPES-  
 
CITY SKY/WX TMP DP RH WIND PRES REMARKS
 
KAILUA KONA MOCLDY 76 67 73 NE5 29.97S  
HILO CLOUDY 75 73 94 W3 30.03S  
HONOKAA* N/A 70 N/A N/A VRB1 N/A  
KAWAIHAE MWT* N/A 81 N/A N/A E1 N/A  
KAWAIHAE* N/A 81 N/A N/A SE2 29.98S  
SOUTH POINT* N/A 72 N/A N/A N17G24 N/A  
UPOLU AIRPORT* NOT AVBL  
KAMUELA* CLOUDY 66 64 94 NE10 30.12R  
HAKALAU* N/A 57 57 100 S5 N/A  
KALOKO-HONOKO* N/A 75 68 78 E2 29.97S  
PALI 2* N/A 68 66 94 N12 N/A  
KEALAKOMO* N/A 75 72 88 NE13 N/A  
KAUPULEHU* NOT AVBL  
KAPAPALA* N/A 69 68 97 NW3 N/A  
LOWER KAHUKU* N/A 66 66 100 MISG N/A  
PUHE CS* N/A 79 68 69 E2 N/A  
PUHO CS* N/A 74 64 70 E3 N/A  
PTA KEAMUKU* N/A 64 59 82 S5 N/A  
WAIKOLOA* NOT AVBL  

 
 
HIZ027>028-181700-  
BIG ISLAND OF HAWAII INTERIOR AND SUMMMITS-  
 
CITY SKY/WX TMP DP RH WIND PRES REMARKS
 
BRADSHAW FIELD CLOUDY 59 53 80 S14G20 30.34R  
MK VISITOR CEN N/A 50 45 81 E10 N/A  
MAUNA KEA* N/A 32 28 86 NE22 N/A WCI 19  
MAUNA LOA* N/A 43 34 70 MISG N/A  
MAUNA LOA 1* NOT AVBL  
PTA KIPUKA* N/A 54 48 82 N6 N/A  
PTA RANGE 17* N/A 61 55 82 NW17G26 N/A  
PTA WEST* N/A 59 55 88 S3 N/A  
NENE CABIN* N/A 39 37 93 E7G15 N/A  
AHUMOA* NOT AVBL  
PTA PORTABLE* NOT AVBL  
PUU MALI* N/A 61 45 55 SE5 N/A  

 
 
HIC003-181700-  
NORTHWEST ISLANDS-  
 
CITY SKY/WX TMP DP RH WIND PRES REMARKS
 
MIDWAY ISLAND CLOUDY 75 70 83 NE20G25 30.21S  
MIDWAY NOS* N/A 77 N/A N/A MISG 30.20R  
FRENCH FRIGATE NOT AVBL  

 
 
PHZ110>124-180-181700-  
BUOY REPORTS  
 
STATION/POSITION TIME TEMP WIND PRES WAVE SWELL
 
AIR SEA DIR/SP/G HT/PER HT/DIR  
(UTC) (F) (DEG/KT/KT) (MB) (FT/S) (FT/D)  
BUOY 51101 NOT AVBL  
BUOY 51100 NOT AVBL  
BUOY 51002 1610 80 60/ 19/ 23 1013.8  
BUOY 51003 1550 80 80 70/ 14/ 16 1014.9R 6/ 8 5/100  
BUOY 51004 1610 78 80 70/ 21/ 27 1014.4  
WAIMEA BAY# NOT AVBL  
MOKAPU POINT# 1604 79 N/A 7/ 9 2/ 90  
LANAI# NOT AVBL  
BARBERS PT 2# NOT AVBL  
PAUWELA# 1600 78 N/A 8/ 9 2/ 90  
HILO# 1557 79 N/A 9/10 3/ 90  
KANEOHE BAY# 1554 78 N/A 6/ 9 2/ 70  
KANEOHE BAY 2# NOT AVBL  
HANALEI# 1606 80 N/A 7/ 9 2/ 80  
KAHULUI HARBOR 1600 50/ 19/ 24 N/A  
HONOLULU HARBOR 1600 80 80 110/ 4/ 11 1016.1  
PEARL HARBOR# 1600 80 N/A 3/ 7 2/160  
KILO NALU NOT AVBL  
HILO HARBOR 1600 220/ 6/ 7 N/A  
MOKUOLOE 1536 79 81 80/ 12/ 17 1016.8R  
NAWILIWILI 1600 70/ 11/ 13 N/A  
WHOTS BUOY NOT AVBL  
BUOY 51028 NOT AVBL  

 
   
.....................KEY.....................................
 
 
SKY/WX - SKY CONDITIONS/PRESENT WEATHER  
TMP - TEMPERATURE IN FAHRENHEIT  
DWPT - DEWPOINT IN FAHRENHEIT  
RH - RELATIVE HUMIDITY IN PERCENT  
WIND - DIRECTION AND SPEED /MPH FOR ISLANDS...KTS FOR BUOYS/  
PRES - MEAN SEA LEVEL PRESSURE IN INCHES OF HG  
VSB - VISIBILITY IN MILES  
HX - HEAT INDEX  
WCI - WIND CHILL INDEX  
VRB - VARIABLE WIND DIRECTION  
N/A - NOT AVAILABLE  
 
 
CLICK HERE TO GO TO PREVIOUS BULLETINS.

The Nexlab HI Page Main Text Page